1998-067MG

Last updated on Sun Jun 04 2017 00:15:09 GMT+0000 (Coordinated Universal Time)

1 42727U 98067MG 17154.14161260 .00010411 00000-0 16033-3 0 9994 2 42727 51.6390 108.2938 0007577 214.2902 145.7601 15.54787718 1261
UTC large
Height (km)
Speed (km/s)
/
Latitude / Longitude
Inclination (degrees)
Orbital Period (minutes)
Azimuth
Elevation
Range (km)
Doppler Factor

Next 0 passes for location: London (51.5072 / 0.1276)

Sorry there are no passes over London.